Total_Precipitation_Accumulation
0.90 0.83 0.70 0.69 0.65 0.68 0.76 0.81 0.85 0.91 0.97 0.92 0.89 0.93 0.96 0.91 0.82 0.80 0.99 1.29 1.79 2.19 2.20 2.06 1.86 1.81 1.77 1.60 1.61 1.78 1.96 2.06 2.05 2.01 2.11 2.19 2.11 1.97 1.87 1.76 1.76 1.70 1.59
0.82 0.85 0.80 0.79 0.78 0.77 0.77 0.76 0.76 0.91 0.97 1.01 0.99 0.97 0.95 0.85 0.83 0.91 1.07 1.15 1.24 1.64 2.30 2.42 2.30 2.14 2.01 1.77 1.68 1.80 1.92 1.94 1.89 1.94 1.99 2.00 1.90 1.69 1.57 1.69 1.87 1.66 1.48
0.76 0.82 0.85 0.84 0.84 0.85 0.84 0.86 0.88 0.98 0.99 1.07 1.11 0.98 0.92 0.87 0.83 0.89 0.98 1.08 0.91 0.96 1.51 2.15 2.38 2.25 2.21 2.06 1.83 1.82 1.89 1.94 1.83 1.96 1.95 1.93 1.76 1.63 1.50 1.67 1.83 1.73 1.54
0.75 0.84 0.87 0.90 0.95 0.87 0.85 0.94 1.01 1.10 1.10 1.18 1.20 1.03 0.86 0.95 0.89 0.89 1.02 1.06 1.03 0.96 1.11 1.37 1.67 1.90 2.26 2.41 2.21 2.07 1.97 1.88 1.72 1.82 1.87 1.82 1.66 1.59 1.49 1.64 1.69 1.70 1.68
0.93 1.00 1.05 1.07 1.09 1.10 1.03 0.94 0.99 1.12 1.24 1.29 1.15 1.06 0.95 0.96 0.98 0.95 1.13 1.16 1.14 1.13 1.19 1.11 1.15 1.35 1.79 2.23 2.38 2.32 2.08 1.81 1.64 1.67 1.69 1.57 1.61 1.59 1.45 1.52 1.57 1.61 1.68
1.20 1.31 1.30 1.23 1.30 1.41 1.45 1.25 1.31 1.28 1.25 1.35 1.19 1.12 1.10 1.04 1.04 1.11 1.16 1.29 1.42 1.27 1.27 1.20 1.10 0.95 1.22 1.61 1.99 2.29 2.32 2.14 1.86 1.75 1.77 1.53 1.47 1.53 1.44 1.38 1.45 1.54 1.56
1.53 1.72 1.70 1.66 1.67 1.67 1.64 1.58 1.74 1.69 1.43 1.35 1.55 1.54 1.38 1.21 1.16 1.15 1.21 1.45 1.57 1.49 1.51 1.43 1.31 1.14 1.03 1.04 1.29 1.95 2.33 2.45 2.32 2.05 2.01 1.83 1.50 1.39 1.38 1.35 1.40 1.51 1.56
1.76 1.81 2.02 2.12 2.09 2.22 2.20 2.02 2.17 2.20 1.83 1.58 1.86 2.19 1.91 1.68 1.28 1.19 1.32 1.38 1.48 1.57 1.61 1.48 1.33 1.22 1.18 1.11 0.96 1.34 1.72 2.20 2.44 2.24 2.28 2.26 1.75 1.43 1.30 1.31 1.37 1.45 1.57
1.92 1.95 2.07 2.23 2.24 2.33 2.45 2.53 2.46 2.57 2.39 1.98 1.85 2.16 2.11 1.96 1.75 1.40 1.34 1.43 1.59 1.64 1.67 1.65 1.48 1.24 1.21 1.24 1.06 0.99 1.17 1.44 1.98 2.27 2.38 2.52 2.09 1.62 1.34 1.29 1.32 1.31 1.45
2.11 2.20 2.23 2.35 2.35 2.36 2.48 2.58 2.53 2.69 2.77 2.38 2.08 1.87 1.72 1.73 1.87 1.71 1.49 1.45 1.60 1.63 1.63 1.65 1.68 1.51 1.34 1.35 1.23 1.00 1.00 1.10 1.43 1.99 2.28 2.51 2.37 1.86 1.47 1.38 1.42 1.36 1.42
2.21 2.26 2.34 2.52 2.49 2.47 2.46 2.67 2.71 2.81 2.74 2.66 2.51 2.34 2.17 1.93 1.61 1.74 1.80 1.66 1.55 1.45 1.50 1.63 1.79 1.73 1.56 1.48 1.55 1.21 0.98 0.99 1.10 1.60 2.00 2.46 2.57 2.23 1.94 1.80 1.67 1.57 1.41
2.25 2.14 2.08 2.25 2.29 2.33 2.33 2.52 2.69 2.82 2.80 2.82 2.74 2.45 2.40 2.28 1.95 1.91 1.78 1.68 1.69 1.50 1.43 1.52 1.57 1.57 1.59 1.55 1.46 1.42 1.12 0.97 1.01 1.27 1.64 2.02 2.48 2.45 2.35 2.28 2.06 1.96 1.76
2.08 2.12 2.01 2.01 2.04 2.00 2.05 2.18 2.25 2.32 2.45 2.61 2.53 2.32 2.27 2.12 2.10 2.14 2.04 1.82 1.66 1.43 1.44 1.43 1.41 1.41 1.41 1.46 1.51 1.56 1.18 0.97 0.96 1.07 1.35 1.59 1.96 2.29 2.47 2.41 2.30 2.30 2.22
1.77 1.86 1.86 1.80 1.85 1.91 1.91 2.02 2.05 2.06 2.08 2.15 2.13 2.21 2.27 2.13 2.06 2.01 2.07 2.23 2.01 1.76 1.58 1.43 1.41 1.44 1.39 1.37 1.52 1.57 1.24 1.08 0.96 0.93 1.05 1.28 1.57 1.95 2.21 2.25 2.30 2.43 2.42
1.34 1.41 1.50 1.57 1.66 1.72 1.78 1.93 2.03 2.03 1.99 1.96 2.04 2.10 2.05 2.04 2.02 1.92 1.90 2.07 2.19 2.03 1.86 1.68 1.54 1.47 1.49 1.40 1.49 1.32 1.27 1.20 1.04 0.99 1.01 0.98 1.12 1.45 1.67 1.85 2.02 2.04 2.17
1.03 1.07 1.17 1.35 1.58 1.69 1.73 1.81 1.88 1.98 2.00 1.95 2.04 2.15 2.17 2.16 2.17 2.10 1.98 1.96 1.93 1.97 1.89 1.67 1.49 1.41 1.53 1.39 1.50 1.31 1.25 1.40 1.20 1.12 1.04 0.93 0.91 0.99 1.12 1.32 1.56 1.66 1.69
0.88 0.99 1.03 1.18 1.33 1.51 1.70 1.84 1.87 1.88 1.90 1.89 1.83 1.93 2.06 2.15 2.26 2.28 2.27 2.15 2.01 1.97 1.88 1.74 1.55 1.44 1.58 1.59 1.51 1.44 1.32 1.25 1.25 1.23 1.10 1.05 0.98 0.88 0.93 1.04 1.25 1.39 1.46
0.72 0.79 0.93 1.12 1.24 1.32 1.37 1.46 1.54 1.60 1.66 1.72 1.71 1.67 1.75 1.85 2.00 2.15 2.24 2.18 2.17 2.06 1.96 1.96 1.80 1.56 1.47 1.53 1.58 1.65 1.54 1.31 1.27 1.36 1.30 1.19 1.11 0.97 0.87 0.91 1.01 1.07 1.12
0.71 0.74 0.88 1.02 1.08 1.13 1.17 1.18 1.29 1.39 1.42 1.42 1.49 1.45 1.46 1.54 1.69 1.84 1.94 2.01 2.12 2.14 2.14 2.06 1.99 1.81 1.57 1.58 1.64 1.65 1.67 1.72 1.49 1.40 1.40 1.35 1.26 1.16 1.07 0.98 0.94 0.95 0.93
0.76 0.79 0.93 1.01 1.03 0.99 1.08 1.10 1.15 1.19 1.17 1.13 1.17 1.18 1.21 1.26 1.36 1.51 1.66 1.87 2.05 2.14 2.20 2.18 2.08 1.87 1.70 1.67 1.65 1.66 1.75 1.82 1.80 1.57 1.45 1.38 1.42 1.37 1.21 1.10 1.03 1.00 1.00
0.81 0.83 0.86 0.96 1.00 0.97 1.02 1.08 1.06 1.00 1.00 0.99 0.95 0.85 0.87 0.95 0.99 1.09 1.13 1.42 1.67 1.89 2.01 2.07 2.04 1.90 1.70 1.59 1.46 1.49 1.63 1.81 1.89 1.85 1.75 1.47 1.40 1.36 1.30 1.25 1.15 1.08 1.03
0.68 0.71 0.75 0.90 1.00 0.89 1.00 0.99 0.91 0.84 0.82 0.87 0.83 0.75 0.73 0.78 0.72 0.69 0.72 0.95 1.25 1.44 1.62 1.80 1.86 1.74 1.60 1.52 1.56 1.55 1.55 1.62 1.65 1.59 1.58 1.59 1.51 1.43 1.35 1.29 1.29 1.26 1.18
0.60 0.63 0.66 0.80 0.90 0.97 0.90 0.75 0.80 0.79 0.80 0.84 0.86 0.87 0.78 0.74 0.83 0.74 0.68 0.75 0.83 0.95 1.11 1.38 1.61 1.60 1.69 1.62 1.52 1.46 1.47 1.50 1.51 1.56 1.57 1.57 1.48 1.40 1.30 1.27 1.39 1.31 1.31
0.56 0.59 0.62 0.64 0.72 0.86 0.80 0.65 0.69 0.67 0.79 0.88 0.91 0.98 0.99 0.93 0.92 0.99 0.92 0.93 0.89 0.83 0.90 0.82 1.03 1.40 1.55 1.61 1.57 1.59 1.68 1.61 1.48 1.51 1.53 1.55 1.48 1.38 1.25 1.17 1.27 1.18 1.12
0.60 0.60 0.62 0.63 0.68 0.73 0.70 0.63 0.66 0.71 0.85 0.87 0.83 0.94 0.99 0.94 1.00 1.06 1.16 1.22 1.15 1.00 1.11 1.11 1.02 1.13 1.27 1.33 1.44 1.54 1.61 1.54 1.49 1.41 1.29 1.26 1.23 1.27 1.31 1.23 1.19 1.22 1.13
0.59 0.61 0.58 0.55 0.58 0.59 0.65 0.57 0.68 0.78 0.83 0.85 0.86 0.92 1.06 0.99 0.97 0.95 1.02 1.16 1.15 1.02 0.89 0.92 0.89 0.79 0.73 0.84 1.04 1.21 1.50 1.62 1.57 1.46 1.27 1.20 1.23 1.22 1.25 1.18 1.08 1.10 1.09